Flag for New Zealand Weather past 2 weeks in Wellington, New Zealand

Now
59 °F

Passing clouds.


Feels Like: 54 °F
Forecast: 56 / 59 °F
Wind: 28 mph from Northwest

Location: Wellington Airport

Current Time: Aug 2, 2014 at 2:29:51 AM

Latest Report: Aug 2, 2014 at 2:00 AM


Visibility: N/A

Pressure: 30.01 "Hg

Humidity: 94%

Dew point: 57 °F

Location of WellingtonLocation

Historic Weather in Wellington — Graph

°F

Wellington temperature yesterday

Maximum temperature yesterday: 59 °F (at 12:00 AM)
Minimum temperature yesterday: 55 °F (at 7:30 PM)
Average temperature yesterday: 58 °F

Past Weeks' High & Low Weather Summary

 TemperatureHumidityPressure
High61 °F (Jul 31, 1:30 PM)100% (Jul 25, 6:30 AM)30.24 "Hg (Jul 25, 6:30 AM)
Low39 °F (Jul 24, 2:30 AM)58% (Jul 26, 4:00 PM)29.50 "Hg (Jul 21, 12:30 AM)
Average51 °F79%29.91 "Hg
* Reported Jul 18 1:00 AM — Aug 2 1:30 AM, Wellington, Weather by CustomWeather, © 2014

Note: Actual official high and low records may vary slightly from our data, if they occured in-between our weather recording intervals... More about our weather records

Advertising

Wellington weather history for previous 24 hours

 ConditionsComfort  
Time TempWeatherWind HumidityBarometerVisibility
1:30 AM
Aug 2
59 °FPassing clouds.28 mph94%30.01 "HgN/A
1:00 AM57 °FPassing clouds.24 mph94%30.01 "HgN/A
12:30 AM57 °FLight rain. Mostly cloudy.21 mph100%30.04 "Hg3 mi
12:00 AM59 °FLight rain. Overcast.30 mph94%30.01 "Hg4 mi
11:30 PM
Aug 1
57 °FLight rain. Fog.33 mph100%30.04 "Hg2 mi
11:00 PM57 °FRain. Passing clouds.28 mph94%30.04 "Hg3 mi
10:30 PM57 °FLight rain. Overcast.26 mph94%30.04 "Hg2 mi
10:00 PM55 °FLight rain. Overcast.22 mph100%30.07 "Hg4 mi
9:30 PM55 °FHeavy rain. Passing clouds.22 mph94%30.07 "Hg2 mi
9:00 PM55 °FLight rain. Overcast.23 mph94%30.07 "Hg6 mi
8:30 PM55 °FRain. Mostly cloudy.23 mph94%30.09 "Hg2 mi
8:00 PM55 °FSprinkles. Mostly cloudy.22 mph94%30.09 "Hg3 mi
7:30 PM55 °FSprinkles. Partly cloudy.24 mph88%30.09 "Hg2 mi
7:00 PM57 °FPassing clouds.22 mph82%30.12 "HgN/A
6:30 PM59 °FCool.20 mph72%30.12 "HgN/A
6:00 PM57 °FCool.23 mph77%30.12 "HgN/A
5:30 PM57 °FPassing clouds.23 mph82%30.12 "HgN/A
5:00 PM57 °FPartly cloudy.26 mph82%30.12 "HgN/A
4:30 PM57 °FPassing clouds.22 mph88%30.12 "HgN/A
4:00 PM59 °FPartly sunny.24 mph82%30.12 "HgN/A
3:30 PM59 °FPartly sunny.20 mph82%30.12 "HgN/A
3:00 PM59 °FPartly sunny.23 mph82%30.12 "HgN/A
2:30 PM59 °FPartly sunny.20 mph82%30.12 "HgN/A
2:00 PM59 °FOvercast.26 mph82%30.12 "HgN/A
1:30 PM59 °FOvercast.26 mph82%30.12 "HgN/A
1:00 PM59 °FOvercast.28 mph82%30.15 "HgN/A
12:30 PM59 °FOvercast.29 mph82%30.15 "HgN/A
12:00 PM59 °FOvercast.29 mph88%30.15 "HgN/A
11:30 AM59 °FOvercast.25 mph82%30.15 "HgN/A
11:00 AM59 °FOvercast.24 mph82%30.18 "HgN/A
10:30 AM59 °FPartly sunny.24 mph82%30.15 "HgN/A
10:00 AM59 °FPartly sunny.28 mph82%30.15 "HgN/A
9:30 AM59 °FPartly sunny.25 mph82%30.15 "HgN/A
9:00 AM59 °FPartly sunny.28 mph82%30.15 "HgN/A
8:30 AM59 °FOvercast.29 mph82%30.12 "HgN/A
8:00 AM59 °FPartly sunny.25 mph82%30.12 "HgN/A
7:30 AM59 °FOvercast.25 mph88%30.12 "HgN/A
7:00 AM59 °FOvercast.23 mph82%30.12 "HgN/A
6:30 AM59 °FPartly sunny.22 mph82%30.12 "HgN/A
6:00 AM59 °FOvercast.25 mph82%30.09 "HgN/A
5:30 AM59 °FOvercast.26 mph82%30.12 "HgN/A
5:00 AM59 °FPassing clouds.28 mph82%30.09 "HgN/A
4:30 AM59 °FPassing clouds.26 mph82%30.09 "HgN/A
4:00 AM59 °FOvercast.28 mph82%30.09 "HgN/A
3:30 AM59 °FOvercast.28 mph82%30.09 "HgN/A
3:00 AM59 °FPassing clouds.28 mph82%30.12 "HgN/A
2:30 AM57 °FPartly cloudy.26 mph88%30.12 "HgN/A
2:00 AM59 °FPassing clouds.26 mph82%30.12 "HgN/A
Weather by CustomWeather, © 2014

See weather overviewHow to use our weather pages